Weather History for Kiana, AK

Change the Weather History Date:

Thursday, April 4, 2013

  Actual Average (PASK) Record (PASK)
Temperature  
Mean Temperature 22 °F -  
Max Temperature 15 °F 15 °F 37 °F (2008)
Min Temperature 12 °F 2 °F -27 °F (2005)
Degree Days  
Heating Degree Days 43    
Moisture  
Dew Point 2 °F    
Average Humidity 42    
Maximum Humidity 53    
Minimum Humidity 29    
Precipitation  
Precipitation 0.00 in - - ()
Sea Level Pressure  
Sea Level Pressure 30.61 in    
Wind  
Wind Speed 9 mph (ENE)    
Max Wind Speed 14 mph    
Max Gust Speed 21 mph    
Visibility 10 miles    
Events      
Averages and records for this station are not official NWS values.
T = Trace of Precipitation, MM = Missing Value Source: NWS Daily Summary

Daily Weather History Graph

Daily Weather History Graph

Search for Another Location

Airport:

Trip Planner

Search our weather history database for the weather conditions in past years. The results will help you decide how hot, cold, wet, or windy it might be!

Date:

Astronomy

Apr. 04, 2013 Rise Set
Actual Time 7:39 AM AKDT 9:52 PM AKDT
Civil Twilight 6:41 AM AKDT 10:50 PM AKDT
Nautical Twilight 5:20 AM AKDT 12:13 AM AKDT
Astronomical Twilight 3:17 AM AKDT 2:11 AM AKDT
Moon 6:38 AM AKDT (4/4) 2:06 PM AKDT (4/4)
Length of Visible Light 16h 09m
Length of Day
14h 12m
Waning Crescent, 32% of the Moon is Illuminated
Apr 4
Waning Crescent
Apr 10
New
Apr 18
First Quarter
Apr 25
Full
May 2
Last Quarter

Hourly Weather History & Observations

Time (AKDT) Temp. Windchill Dew Point Humidity Pressure Visibility Wind Dir Wind Speed Gust Speed Precip Events Conditions
12:01 AM 21.9 °F 10.4 °F 3.0 °F 44% 30.68 in 10.0 mi East 11.5 mph 18.4 mph N/A   Clear
1:01 AM 19.9 °F 8.6 °F 3.0 °F 48% 30.69 in 10.0 mi East 10.4 mph - N/A   Clear
2:01 AM 21.0 °F 9.3 °F 1.9 °F 44% 30.71 in 10.0 mi East 11.5 mph - N/A   Clear
3:01 AM 19.0 °F 6.1 °F 1.9 °F 47% 30.71 in 10.0 mi ENE 12.7 mph - N/A   Clear
4:01 AM 19.0 °F 13.9 °F 1.0 °F 46% 30.72 in 10.0 mi Variable 3.5 mph - N/A   Clear
5:01 AM 17.1 °F 10.0 °F 1.0 °F 50% 30.71 in 10.0 mi East 4.6 mph - N/A   Clear
6:01 AM 17.1 °F 7.6 °F 1.0 °F 50% 30.70 in 10.0 mi Variable 6.9 mph - N/A   Clear
7:01 AM 15.1 °F 2.5 °F -0.0 °F 51% 30.69 in 10.0 mi East 10.4 mph - N/A   Clear
8:01 AM 12.0 °F -1.3 °F -2.0 °F 53% 30.69 in 10.0 mi East 10.4 mph - N/A   Clear
9:01 AM 12.9 °F - -2.0 °F 51% 30.69 in 10.0 mi Calm Calm - N/A   Clear
10:01 AM 14.0 °F 5.1 °F -2.0 °F 49% 30.68 in 10.0 mi NNE 5.8 mph - N/A   Clear
11:01 AM 19.0 °F 11.1 °F -0.0 °F 43% 30.66 in 10.0 mi ENE 5.8 mph - N/A   Clear
12:01 PM 23.0 °F 13.9 °F 1.9 °F 40% 30.64 in 10.0 mi NE 8.1 mph - N/A   Clear
1:01 PM 26.1 °F 17.6 °F 3.0 °F 37% 30.63 in 10.0 mi East 8.1 mph - N/A   Clear
2:01 PM 27.0 °F 19.5 °F 3.0 °F 36% 30.60 in 10.0 mi East 6.9 mph - N/A   Clear
3:01 PM 30.0 °F 21.7 °F 5.0 °F 35% 30.58 in 10.0 mi NNW 9.2 mph - N/A   Clear
4:01 PM 32.0 °F 22.5 °F 3.9 °F 31% 30.56 in 10.0 mi NNE 12.7 mph - N/A   Clear
5:01 PM 32.0 °F 23.0 °F 3.9 °F 31% 30.52 in 10.0 mi NE 11.5 mph - N/A   Clear
6:01 PM 30.0 °F 22.4 °F 1.0 °F 29% 30.50 in 10.0 mi NNE 8.1 mph - N/A   Clear
7:01 PM 30.0 °F 21.7 °F 3.9 °F 33% 30.47 in 10.0 mi NNE 9.2 mph - N/A   Clear
8:01 PM 27.0 °F 18.0 °F 3.9 °F 37% 30.46 in 10.0 mi NE 9.2 mph - N/A   Clear
9:01 PM 24.1 °F 17.0 °F 3.9 °F 42% 30.45 in 10.0 mi ENE 5.8 mph - N/A   Clear
10:01 PM 21.9 °F 10.4 °F 1.0 °F 40% 30.44 in 10.0 mi NE 11.5 mph 20.7 mph N/A   Clear
11:01 PM 19.9 °F 6.7 °F -2.0 °F 38% 30.43 in 10.0 mi NE 13.8 mph - N/A   Clear